[[{"header":{"parameterUnit":"m.s-1","parameterCategory":1,"la1":30.2991,"la2":30.254,"lo1":-89.0895,"lo2":-89.0444,"dy":0.0017,"dx":0.0017,"nx":28,"ny":28,"refTime":"2024-06-16T09:00:00:Z","depth":0,"parameterNumber":2,"parameterNumberName":"U-component_of_WINDS"},"data":[0,0,0,0,0,0,0,0,0,0,0,0,0,0,0,0,0,0,0,0,0,0,0,0,0,0,0,0,0,0,0,0,0,0,0,0,0,0,0,0,0,0,0,0,0,0,0,0,0,0,0,0,0,0,0,0,0,0,-4.5427,-4.5426,0,-4.537,-4.5369,-4.5369,-4.5313,-4.5312,-4.5311,-4.5311,-4.5249,-4.5248,-4.5247,0,0,0,0,0,0,0,0,0,0,0,0,0,-4.5484,-4.5483,-4.5427,-4.5426,-4.5425,-4.537,-4.5369,-4.5368,-4.5313,-4.5312,-4.5311,-4.531,-4.5249,-4.5248,-4.5247,0,0,0,0,0,0,0,0,0,0,0,0,0,-4.5447,-4.5483,-4.5427,-4.5391,-4.5387,-4.537,-4.5369,-4.5368,-4.5313,-4.5312,-4.5311,-4.531,-4.525,-4.5248,-4.5247,-4.526,0,0,-4.5243,-4.5242,0,0,0,0,0,0,0,0,-4.5449,-4.5444,-4.5397,-4.5393,-4.5389,-4.5347,-4.5367,-4.5332,-4.5313,-4.5341,-4.5311,-4.5309,-4.5283,-4.5278,-4.527,-4.5257,-4.5254,-4.5242,-4.5242,-4.5241,-4.5241,0,0,0,0,0,0,0,-4.5451,-4.5447,-4.5404,-4.5396,-4.5392,-4.5377,-4.537,-4.536,-4.5318,-4.5339,-4.5334,-4.5329,-4.528,-4.5271,-4.5268,-4.5253,-4.5243,-4.5241,-4.524,-4.524,-4.5246,-4.5247,0,0,0,0,0,0,-4.546,-4.5449,-4.5406,-4.5402,-4.5417,-4.5377,-4.5369,-4.5362,-4.5318,-4.5311,-4.533,-4.5326,-4.5274,-4.527,-4.5266,-4.5276,-4.5241,-4.524,-4.5239,-4.5245,-4.5247,-4.5248,0,0,0,0,0,0,-4.5461,-4.5457,-4.5408,-4.5425,-4.5417,-4.5377,-4.5369,-4.5361,-4.5352,-4.5312,-4.5304,-4.5329,-4.5273,-4.5268,-4.5262,-4.5273,-4.5239,-4.5238,-4.5244,-4.5246,-4.5247,-4.5298,0,0,0,0,0,0,-4.5463,-4.5457,-4.5462,-4.5425,-4.5417,-4.5406,-4.537,-4.5361,-4.5351,-4.5346,-4.5309,-4.5301,-4.5272,-4.5264,-4.526,-4.5271,-4.5237,-4.5243,-4.5245,-4.5247,-4.5295,-4.5301,-4.5306,0,0,0,0,0,-4.5465,-4.5479,-4.5463,-4.5458,-4.5422,-4.5407,-4.5402,-4.5369,-4.5352,-4.5356,-4.533,-4.5303,-4.5273,-4.5264,-4.5259,-4.5269,-4.5242,-4.5244,-4.5247,-4.5292,-4.53,-4.5306,0,0,0,0,0,0,-4.5517,-4.5473,-4.5455,-4.5457,-4.5436,-4.5398,-4.5401,-4.5378,-4.5361,-4.5357,-4.5316,-4.5308,-4.5306,-4.5287,-4.5278,-4.5279,-4.5254,-4.5255,-4.529,-4.5297,-4.5303,-4.5306,-4.5235,0,0,0,0,0,-4.5529,-4.5521,-4.5483,-4.5488,-4.5478,-4.5442,-4.5434,-4.5411,-4.5387,-4.5378,-4.5351,-4.5328,-4.5314,-4.5305,-4.5289,-4.5293,-4.5283,-4.5298,-4.5303,-4.5308,-4.5309,-4.5308,-4.5313,-4.5255,-4.5255,-4.5255,0,0,-4.5552,-4.5528,-4.5525,-4.5498,-4.5479,-4.547,-4.5435,-4.5428,-4.542,-4.5376,-4.5368,-4.5348,-4.532,-4.5319,-4.5317,-4.5303,-4.5323,-4.5311,-4.5315,-4.5313,-4.5311,-4.5316,-4.5321,-4.5257,-4.5257,-4.5256,0,0,-4.5591,-4.5572,-4.5573,-4.5556,-4.5528,-4.5504,-4.5505,-4.547,-4.5455,-4.5447,-4.5413,-4.5404,-4.5381,-4.5361,-4.5348,-4.5381,-4.5354,-4.5377,-4.5405,-4.5405,-4.5409,-4.5413,-4.5422,-4.5426,-4.5379,-4.5379,-4.5379,0,-4.5623,-4.561,-4.5577,-4.5571,-4.556,-4.5521,-4.5522,-4.5506,-4.5474,-4.5466,-4.5452,-4.5422,-4.54,-4.5393,-4.5401,-4.5393,-4.539,-4.5379,-4.5411,-4.5415,-4.5418,-4.5426,-4.543,-4.5382,-4.5381,-4.5381,-4.5381,0,-4.565,-4.5641,-4.5646,-4.5617,-4.5606,-4.5604,-4.557,-4.5563,-4.5541,-4.5518,-4.551,-4.5483,-4.5461,-4.5458,-4.5436,-4.5447,-4.5439,-4.5419,-4.5393,-4.5427,-4.5433,-4.5437,-4.5385,-4.5384,-4.5384,-4.5383,0,0,-4.5716,-4.5671,-4.5672,-4.5658,-4.5626,-4.5618,-4.5614,-4.5593,-4.5587,-4.5567,-4.5561,-4.5543,-4.5524,-4.5509,-4.5485,-4.5485,-4.551,-4.5464,-4.5463,-4.5472,-4.5518,-4.5531,-4.5536,-4.5494,-4.5494,-4.5495,-4.5519,0,-4.5746,-4.5737,-4.5708,-4.5706,-4.5697,-4.5661,-4.5657,-4.5636,-4.5615,-4.5604,-4.558,-4.5567,-4.5544,-4.5535,-4.5533,-4.5507,-4.5518,-4.5506,-4.5485,-4.5485,-4.5491,-4.554,-4.5554,-4.5579,-4.5522,-4.5523,-4.5523,0,-4.578,-4.5763,-4.5761,-4.5729,-4.5724,-4.5721,-4.5699,-4.5689,-4.5665,-4.5649,-4.5634,-4.5608,-4.56,-4.5578,-4.5565,-4.5557,-4.5548,-4.5534,-4.5534,-4.5528,-4.5504,-4.5533,-4.5586,-4.5589,-4.5527,-4.5527,-4.5527,0,-4.5825,-4.5803,-4.5798,-4.5788,-4.575,-4.5749,-4.5733,-4.5707,-4.5697,-4.5678,-4.567,-4.5651,-4.564,-4.5625,-4.5594,-4.5581,-4.5584,-4.556,-4.5569,-4.557,-4.5568,-4.5568,-4.5618,-4.5567,-4.5567,-4.5567,-4.5567,0,-4.5861,-4.586,-4.5818,-4.5815,-4.5813,-4.578,-4.5779,-4.576,-4.5737,-4.5729,-4.5697,-4.569,-4.5651,-4.5638,-4.5614,-4.5606,-4.5602,-4.5588,-4.5581,-4.5589,-4.5591,-4.558,-4.5576,-4.5568,-4.5568,-4.5568,-4.5568,0,-4.591,-4.5882,-4.5874,-4.584,-4.5832,-4.5832,-4.5802,-4.5797,-4.5775,-4.5764,-4.576,-4.5725,-4.5709,-4.5677,-4.5652,-4.5636,-4.5633,-4.5622,-4.5641,-4.5636,-4.5646,-4.5645,-4.5689,-4.5692,-4.5642,-4.5642,-4.5643,0,-4.5933,-4.5932,-4.5898,-4.5891,-4.5876,-4.5865,-4.5854,-4.5822,-4.5812,-4.5784,-4.5782,-4.5764,-4.5747,-4.5723,-4.5695,-4.5675,-4.5662,-4.5679,-4.5659,-4.5667,-4.5659,-4.5659,-4.5657,-4.5682,-4.5683,-4.5684,-4.5684,0,-4.5976,-4.5962,-4.5949,-4.593,-4.5919,-4.5902,-4.5884,-4.588,-4.5843,-4.5833,-4.5817,-4.5805,-4.578,-4.5761,-4.5738,-4.572,-4.5695,-4.5692,-4.5692,-4.5699,-4.5709,-4.5701,-4.565,-4.569,-4.5689,-4.5689,-4.5688,-4.5688,-4.6011,-4.6008,-4.5983,-4.5969,-4.5953,-4.5936,-4.593,-4.5908,-4.5894,-4.5872,-4.5854,-4.5839,-4.5813,-4.5779,-4.5763,-4.575,-4.5738,-4.574,-4.574,-4.574,-4.5742,-4.5714,-4.5746,-4.5746,-4.5746,-4.5745,-4.5745,0,-4.605,-4.6033,-4.602,-4.5997,-4.5985,-4.5966,-4.5945,-4.5936,-4.5923,-4.5903,-4.5888,-4.5868,-4.5851,-4.5821,-4.5801,-4.5796,-4.5784,-4.5791,-4.579,-4.5786,-4.5755,-4.5756,-4.5801,-4.5801,-4.5801,-4.5801,-4.5801,-4.5801,-4.6069,-4.6062,-4.6046,-4.6031,-4.6013,-4.5999,-4.5988,-4.5973,-4.5956,-4.5937,-4.5922,-4.5904,-4.5879,-4.5857,-4.5839,-4.5831,-4.5823,-4.5834,-4.5822,-4.5793,-4.5788,-4.5783,-4.5783,-4.5833,-4.5833,-4.5853,-4.5853,-4.5853]},{"header":{"parameterUnit":"m.s-1","parameterCategory":1,"la1":30.2991,"la2":30.254,"lo1":-89.0895,"lo2":-89.0444,"dy":0.0017,"dx":0.0017,"nx":28,"ny":28,"refTime":"2024-06-16T09:00:00:Z","depth":0,"parameterNumber":3,"parameterNumberName":"V-component_of_WINDS"},"data":[0,0,0,0,0,0,0,0,0,0,0,0,0,0,0,0,0,0,0,0,0,0,0,0,0,0,0,0,0,0,0,0,0,0,0,0,0,0,0,0,0,0,0,0,0,0,0,0,0,0,0,0,0,0,0,0,0,0,5.7526,5.7527,0,5.7628,5.7629,5.763,5.7627,5.7625,5.7624,5.7623,5.7721,5.7725,5.7729,0,0,0,0,0,0,0,0,0,0,0,0,0,5.7325,5.7328,5.7526,5.7527,5.7529,5.7628,5.7629,5.763,5.7627,5.7625,5.7624,5.7622,5.772,5.7725,5.7729,0,0,0,0,0,0,0,0,0,0,0,0,0,5.7418,5.7329,5.7526,5.7539,5.7541,5.7627,5.7629,5.7631,5.7627,5.7625,5.7623,5.7621,5.7719,5.7724,5.773,5.7808,0,0,5.7748,5.7751,0,0,0,0,0,0,0,0,5.7412,5.7425,5.7536,5.7538,5.7541,5.7613,5.7594,5.769,5.7628,5.7594,5.7623,5.762,5.7686,5.7695,5.7718,5.7813,5.7817,5.7749,5.7752,5.7755,5.7756,0,0,0,0,0,0,0,5.7406,5.7421,5.7566,5.7537,5.754,5.7538,5.7549,5.7612,5.7651,5.7597,5.7597,5.761,5.7687,5.7713,5.7721,5.7819,5.7748,5.7754,5.7757,5.776,5.7984,5.7986,0,0,0,0,0,0,5.7397,5.7415,5.7563,5.7569,5.747,5.7544,5.7556,5.7592,5.765,5.7657,5.7611,5.7609,5.7704,5.7714,5.7724,5.7821,5.7755,5.776,5.7764,5.7981,5.7984,5.7987,0,0,0,0,0,0,5.7393,5.7411,5.7559,5.7492,5.7511,5.7549,5.7589,5.7595,5.762,5.7661,5.7667,5.763,5.7702,5.7716,5.7788,5.7824,5.7763,5.7768,5.7978,5.7982,5.7985,5.8013,0,0,0,0,0,0,5.7387,5.7409,5.744,5.7493,5.7515,5.7622,5.7592,5.7598,5.7631,5.7629,5.768,5.7687,5.7702,5.7779,5.7794,5.7831,5.7773,5.7975,5.798,5.7984,5.8009,5.8017,5.8024,0,0,0,0,0,5.738,5.7442,5.7442,5.7459,5.7555,5.7624,5.7637,5.7654,5.7634,5.7665,5.7691,5.7685,5.7818,5.7787,5.7803,5.7842,5.7973,5.7979,5.7984,5.8006,5.8016,5.8024,0,0,0,0,0,0,5.739,5.7449,5.7449,5.7531,5.7573,5.7624,5.7663,5.7664,5.7711,5.7707,5.7725,5.7737,5.7809,5.7833,5.7797,5.7922,5.7893,5.7902,5.7904,5.7913,5.7921,5.7913,5.7778,0,0,0,0,0,5.7402,5.7456,5.7504,5.7571,5.7592,5.7624,5.7655,5.7666,5.7709,5.7726,5.7758,5.7799,5.785,5.7883,5.7932,5.8013,5.8024,5.8048,5.8055,5.8061,5.8069,5.8114,5.8126,5.8005,5.8005,5.8004,0,0,5.7427,5.7466,5.7498,5.7574,5.7608,5.7662,5.7639,5.7697,5.7736,5.7734,5.7805,5.783,5.7877,5.7954,5.799,5.7976,5.8105,5.8068,5.8073,5.8077,5.8121,5.8133,5.8143,5.8008,5.8008,5.8007,0,0,5.7499,5.7535,5.7595,5.763,5.7682,5.7704,5.7718,5.777,5.7787,5.7859,5.7859,5.7905,5.7993,5.8027,5.8055,5.8143,5.8139,5.8158,5.8197,5.8241,5.8251,5.8259,5.8291,5.8302,5.8165,5.8166,5.8166,0,5.7523,5.7606,5.7626,5.7685,5.7718,5.7721,5.7782,5.7814,5.7879,5.7902,5.7886,5.7997,5.8028,5.8114,5.8136,5.8159,5.8176,5.8152,5.8248,5.8257,5.8265,5.8296,5.8308,5.8168,5.8167,5.8167,5.8167,0,5.7633,5.769,5.7732,5.7798,5.7836,5.7895,5.7923,5.7959,5.7966,5.7989,5.8062,5.8101,5.8158,5.8179,5.8186,5.8267,5.8257,5.8245,5.8216,5.8279,5.8308,5.8319,5.817,5.817,5.8169,5.8169,0,0,5.7714,5.7791,5.7806,5.7836,5.7895,5.7939,5.7998,5.8057,5.8088,5.8132,5.8183,5.8257,5.8247,5.828,5.829,5.8329,5.8397,5.8312,5.8313,5.8327,5.8489,5.8498,5.8512,5.8395,5.8397,5.8399,5.8485,0,5.7793,5.7901,5.7921,5.8015,5.8068,5.8072,5.8124,5.8165,5.8188,5.8236,5.826,5.8313,5.8295,5.8315,5.8354,5.838,5.843,5.8374,5.8441,5.8444,5.843,5.8527,5.8536,5.8616,5.8497,5.8499,5.85,0,5.79,5.7951,5.805,5.8103,5.8126,5.8173,5.8229,5.8274,5.8321,5.8334,5.8372,5.8379,5.844,5.8408,5.8493,5.8455,5.8484,5.8501,5.8504,5.8511,5.8476,5.8537,5.8641,5.8654,5.8518,5.8517,5.8515,0,5.795,5.8043,5.8115,5.814,5.8203,5.8236,5.8264,5.8308,5.8343,5.8391,5.8413,5.8467,5.8497,5.8538,5.8559,5.8534,5.8642,5.8612,5.8655,5.8654,5.8677,5.8676,5.8789,5.8695,5.8695,5.8695,5.8694,0,5.8037,5.8098,5.8138,5.8183,5.8251,5.8273,5.8339,5.8366,5.8406,5.8455,5.8461,5.8506,5.853,5.8579,5.8595,5.8663,5.8676,5.8689,5.8692,5.8689,5.8687,5.8708,5.8703,5.8698,5.8697,5.8696,5.8696,0,5.8105,5.8134,5.8213,5.8268,5.8283,5.8331,5.8376,5.8419,5.8442,5.8504,5.852,5.8556,5.8613,5.8638,5.8709,5.872,5.8798,5.8797,5.8783,5.8784,5.8826,5.8822,5.8956,5.8976,5.8868,5.8869,5.887,0,5.8159,5.8207,5.8267,5.8301,5.833,5.8384,5.842,5.8444,5.848,5.8538,5.8574,5.8632,5.868,5.8772,5.8804,5.8858,5.8859,5.8902,5.8867,5.8862,5.886,5.8858,5.8863,5.8909,5.891,5.891,5.8911,0,5.8252,5.8265,5.8317,5.8375,5.8418,5.8464,5.8509,5.8536,5.8566,5.8607,5.8668,5.8705,5.8779,5.8837,5.8893,5.892,5.8921,5.8922,5.8935,5.8932,5.8923,5.8929,5.8801,5.8919,5.8918,5.8918,5.8917,5.8917,5.8315,5.8358,5.8408,5.8466,5.8503,5.8545,5.8589,5.8618,5.867,5.8732,5.8742,5.8807,5.8853,5.8929,5.8958,5.9009,5.8998,5.9016,5.9021,5.9025,5.9029,5.8914,5.9019,5.9018,5.9018,5.9018,5.9018,0,5.841,5.8442,5.8496,5.856,5.8606,5.8604,5.8654,5.8692,5.875,5.8793,5.8841,5.8911,5.8967,5.9004,5.9061,5.9094,5.9096,5.9109,5.9107,5.9113,5.9035,5.9018,5.9106,5.9106,5.9106,5.9106,5.9106,5.9106,5.8464,5.8537,5.8556,5.8647,5.8678,5.8743,5.8772,5.8811,5.8846,5.8924,5.8972,5.8997,5.9037,5.9098,5.9149,5.9159,5.918,5.9193,5.9201,5.9127,5.9118,5.911,5.9094,5.9197,5.9197,5.9276,5.9277,5.9277]}]]